| time (UTC) | temp F | wind direction | speed knots | gust knots | rain 1hr in | rain 24hr in | rain mn in | humidity % | barometer mb |
| 20260510154529 | 74 | 316 | 0.9 | 1.7 | 0.00 | 0.00 | 0.00 | 68 | 1018.2 |
| 20260510153517 | 73 | 307 | 0.9 | 2.6 | 0.00 | 0.00 | 0.00 | 70 | 1018.1 |
| 20260510153409 | 72 | 336 | 1.7 | 2.6 | 0.00 | 0.00 | 0.00 | 70 | 1017.8 |
| 20260510145520 | 71 | 327 | 1.7 | 2.6 | 0.00 | 0.00 | 0.00 | 71 | 1017.9 |
| 20260510144545 | 72 | 329 | 0.9 | 2.6 | 0.00 | 0.00 | 0.00 | 71 | 1018.1 |
| 20260510143530 | 72 | 335 | 0.9 | 1.7 | 0.00 | 0.00 | 0.00 | 70 | 1018.0 |
| 20260510142518 | 70 | 345 | 0.9 | 5.2 | 0.00 | 0.00 | 0.00 | 72 | 1017.9 |
| 20260510141523 | 70 | 344 | 0.9 | 2.6 | 0.00 | 0.00 | 0.00 | 71 | 1018.0 |
| 20260510140528 | 69 | 327 | 0.9 | 2.6 | 0.00 | 0.00 | 0.00 | 72 | 1017.9 |
| 20260510135533 | 69 | 329 | 1.7 | 1.7 | 0.00 | 0.00 | 0.00 | 72 | 1017.9 |
| 20260510134521 | 68 | 31 | 0.0 | 1.7 | 0.00 | 0.00 | 0.00 | 71 | 1017.7 |
| 20260510133525 | 67 | 327 | 0.0 | 0.9 | 0.00 | 0.00 | 0.00 | 74 | 1017.5 |
| 20260510132531 | 64 | 331 | 0.0 | 1.7 | 0.00 | 0.00 | 0.00 | 79 | 1017.7 |
| 20260510131518 | 64 | 333 | 0.9 | 0.9 | 0.00 | 0.00 | 0.00 | 79 | 1017.7 |
| 20260510130524 | 64 | 0.0 | 1.7 | 0.00 | 0.00 | 0.00 | 79 | 1017.5 | |
| 20260510125549 | 63 | 341 | 1.7 | 2.6 | 0.00 | 0.00 | 0.00 | 79 | 1017.2 |
| 20260510124516 | 63 | 346 | 0.0 | 1.7 | 0.00 | 0.00 | 0.00 | 79 | 1017.1 |
| 20260510123521 | 63 | 319 | 0.0 | 0.9 | 0.00 | 0.00 | 0.00 | 80 | 1016.9 |
| 20260510123356 | 60 | 0.0 | 0.9 | 0.00 | 0.00 | 0.00 | 83 | 1016.4 | |
| 20260510115544 | 59 | 329 | 0.0 | 0.9 | 0.00 | 0.00 | 0.00 | 87 | 1015.9 |
| 20260510114550 | 58 | 0.0 | 0.0 | 0.00 | 0.00 | 0.00 | 89 | 1015.7 | |
| 20260510113518 | 57 | 0.0 | 0.0 | 0.00 | 0.00 | 0.00 | 90 | 1015.6 | |
| 20260510113409 | 57 | 0.0 | 0.0 | 0.00 | 0.00 | 0.00 | 89 | 1015.2 | |
| 20260510105541 | 57 | 0.0 | 0.9 | 0.00 | 0.00 | 0.00 | 88 | 1015.3 | |
| 20260510104527 | 57 | 0.0 | 0.0 | 0.00 | 0.00 | 0.00 | 86 | 1015.0 | |
| 20260510103530 | 58 | 0.0 | 0.0 | 0.00 | 0.00 | 0.00 | 85 | 1014.9 | |
| 20260510102518 | 58 | 43 | 0.0 | 0.9 | 0.00 | 0.00 | 0.00 | 85 | 1014.9 |
| 20260510101523 | 59 | 18 | 0.0 | 0.9 | 0.00 | 0.00 | 0.00 | 84 | 1015.0 |
| 20260510100528 | 59 | 0.0 | 0.0 | 0.00 | 0.00 | 0.00 | 85 | 1014.9 | |
| 20260510095516 | 59 | 0.0 | 0.0 | 0.00 | 0.00 | 0.00 | 85 | 1015.0 | |
| 20260510094522 | 59 | 359 | 0.0 | 0.9 | 0.00 | 0.00 | 0.00 | 84 | 1015.0 |
| 20260510093526 | 59 | 312 | 0.0 | 0.9 | 0.00 | 0.00 | 0.00 | 84 | 1014.9 |
| 20260510092530 | 58 | 317 | 0.0 | 0.9 | 0.00 | 0.00 | 0.00 | 83 | 1014.9 |
| 20260510091536 | 58 | 326 | 0.0 | 0.9 | 0.00 | 0.00 | 0.00 | 84 | 1014.7 |
| 20260510090541 | 58 | 40 | 0.0 | 0.9 | 0.00 | 0.00 | 0.00 | 82 | 1014.9 |
| 20260510085528 | 59 | 62 | 0.0 | 0.9 | 0.00 | 0.00 | 0.00 | 79 | 1014.8 |
| 20260510084555 | 60 | 30 | 0.0 | 0.9 | 0.00 | 0.00 | 0.00 | 76 | 1014.8 |
| 20260510083559 | 62 | 1 | 0.0 | 0.9 | 0.00 | 0.00 | 0.00 | 71 | 1014.8 |
| 20260510083437 | 60 | 301 | 0.9 | 0.9 | 0.00 | 0.00 | 0.00 | 74 | 1013.8 |
| 20260510075524 | 61 | 305 | 0.0 | 0.9 | 0.00 | 0.00 | 0.00 | 73 | 1013.7 |
| 20260510074529 | 62 | 290 | 0.9 | 0.9 | 0.00 | 0.00 | 0.00 | 73 | 1013.6 |
| 20260510073518 | 62 | 306 | 0.0 | 0.9 | 0.00 | 0.00 | 0.00 | 70 | 1013.6 |
| 20260510072539 | 63 | 306 | 0.0 | 0.9 | 0.00 | 0.00 | 0.00 | 69 | 1013.4 |
| 20260510071527 | 63 | 213 | 0.9 | 1.7 | 0.00 | 0.02 | 0.00 | 69 | 1013.6 |
| 20260510070553 | 63 | 227 | 0.0 | 0.9 | 0.00 | 0.02 | 0.00 | 70 | 1013.7 |
| 20260510065538 | 63 | 303 | 0.0 | 0.9 | 0.00 | 0.04 | 0.00 | 69 | 1013.8 |
| 20260510064526 | 63 | 310 | 0.0 | 0.9 | 0.00 | 0.04 | 0.00 | 68 | 1013.7 |
| 20260510063530 | 63 | 270 | 0.9 | 1.7 | 0.00 | 0.04 | 0.00 | 69 | 1014.0 |
| 20260510063426 | 65 | 316 | 0.0 | 0.9 | 0.00 | 0.04 | 0.00 | 68 | 1013.5 |
| 20260510055516 | 65 | 275 | 0.0 | 1.7 | 0.00 | 0.04 | 0.00 | 67 | 1013.6 |
| 20260510054521 | 64 | 244 | 0.0 | 1.7 | 0.00 | 0.04 | 0.00 | 69 | 1013.7 |
| 20260510053526 | 64 | 0.0 | 0.0 | 0.00 | 0.04 | 0.00 | 70 | 1013.4 | |
| 20260510053401 | 61 | 312 | 0.0 | 0.9 | 0.00 | 0.04 | 0.00 | 77 | 1013.2 |
| 20260510045529 | 61 | 0.0 | 0.0 | 0.00 | 0.04 | 0.04 | 77 | 1013.2 | |
| 20260510044537 | 61 | 327 | 0.0 | 0.9 | 0.00 | 0.04 | 0.04 | 78 | 1013.2 |
| 20260510043542 | 60 | 0.0 | 0.0 | 0.00 | 0.04 | 0.04 | 78 | 1013.4 | |
| 20260510043357 | 61 | 0.0 | 0.0 | 0.00 | 0.04 | 0.04 | 76 | 1013.1 | |
| 20260510035525 | 61 | 0.0 | 0.0 | 0.00 | 0.04 | 0.04 | 79 | 1013.1 | |
| 20260510034530 | 61 | 0.0 | 0.0 | 0.00 | 0.04 | 0.04 | 80 | 1013.1 | |
| 20260510033518 | 61 | 0.0 | 0.0 | 0.00 | 0.04 | 0.04 | 82 | 1013.1 | |
| 20260510033410 | 64 | 0.0 | 0.0 | 0.00 | 0.04 | 0.04 | 73 | 1012.8 | |
| 20260510025521 | 65 | 0.0 | 0.0 | 0.00 | 0.04 | 0.04 | 71 | 1013.0 | |
| 20260510024546 | 65 | 0.0 | 0.0 | 0.00 | 0.04 | 0.04 | 71 | 1012.8 | |
| 20260510023530 | 64 | 0.0 | 0.0 | 0.00 | 0.04 | 0.04 | 73 | 1012.9 | |
| 20260510023406 | 63 | 0.0 | 0.0 | 0.00 | 0.04 | 0.04 | 81 | 1012.5 | |
| 20260510015518 | 63 | 0.0 | 0.0 | 0.00 | 0.04 | 0.04 | 80 | 1012.4 | |
| 20260510014522 | 64 | 0.0 | 0.0 | 0.00 | 0.04 | 0.04 | 78 | 1012.3 | |
| 20260510013526 | 65 | 0.0 | 0.0 | 0.00 | 0.04 | 0.04 | 76 | 1012.3 | |
| 20260510013402 | 70 | 0.0 | 0.0 | 0.00 | 0.04 | 0.04 | 65 | 1011.7 | |
| 20260510005529 | 72 | 0.0 | 0.0 | 0.00 | 0.04 | 0.04 | 58 | 1011.5 | |
| 20260510004517 | 74 | 0.0 | 0.0 | 0.00 | 0.04 | 0.04 | 54 | 1011.5 | |
| 20260510003522 | 75 | 0.0 | 0.0 | 0.00 | 0.04 | 0.04 | 52 | 1011.2 | |
| 20260510003357 | 78 | 219 | 0.0 | 1.7 | 0.00 | 0.04 | 0.04 | 47 | 1011.0 |
| 20260509235525 | 78 | 204 | 0.9 | 2.6 | 0.00 | 0.04 | 0.04 | 45 | 1011.0 |
| 20260509234530 | 78 | 224 | 0.9 | 2.6 | 0.00 | 0.04 | 0.04 | 44 | 1010.9 |
| 20260509233518 | 79 | 206 | 1.7 | 2.6 | 0.00 | 0.04 | 0.04 | 43 | 1011.0 |
| 20260509233413 | 80 | 257 | 2.6 | 5.2 | 0.00 | 0.04 | 0.04 | 40 | 1011.0 |
| 20260509225541 | 79 | 187 | 2.6 | 6.1 | 0.00 | 0.04 | 0.04 | 40 | 1011.0 |
| 20260509224526 | 80 | 222 | 2.6 | 6.1 | 0.00 | 0.04 | 0.04 | 42 | 1011.0 |
| 20260509223531 | 80 | 149 | 1.7 | 2.6 | 0.00 | 0.04 | 0.04 | 43 | 1010.7 |
| 20260509223406 | 81 | 235 | 1.7 | 6.1 | 0.00 | 0.04 | 0.04 | 40 | 1011.0 |
| 20260509215516 | 82 | 262 | 2.6 | 5.2 | 0.00 | 0.04 | 0.04 | 40 | 1010.8 |
| 20260509214521 | 82 | 265 | 1.7 | 7.0 | 0.00 | 0.04 | 0.04 | 38 | 1010.8 |
| 20260509213527 | 83 | 295 | 0.9 | 1.7 | 0.00 | 0.04 | 0.04 | 36 | 1010.8 |
| 20260509213401 | 81 | 298 | 0.9 | 3.5 | 0.00 | 0.04 | 0.04 | 36 | 1010.8 |
| 20260509205529 | 81 | 276 | 2.6 | 7.0 | 0.00 | 0.04 | 0.04 | 38 | 1010.9 |
| 20260509204518 | 81 | 281 | 2.6 | 6.1 | 0.00 | 0.04 | 0.04 | 40 | 1011.0 |
| 20260509203522 | 82 | 256 | 1.7 | 3.5 | 0.00 | 0.04 | 0.04 | 46 | 1011.1 |
| 20260509203409 | 82 | 251 | 0.9 | 2.6 | 0.00 | 0.04 | 0.04 | 43 | 1011.1 |
| 20260509202328 | 80 | 271 | 1.7 | 6.1 | 0.00 | 0.04 | 0.04 | 45 | 1011.3 |
| 20260509193038 | 79 | 275 | 2.6 | 6.1 | 0.00 | 0.04 | 0.04 | 51 | 1011.7 |
| 20260509192104 | 78 | 302 | 1.7 | 2.6 | 0.00 | 0.04 | 0.04 | 54 | 1011.7 |
| 20260509191028 | 79 | 248 | 1.7 | 3.5 | 0.00 | 0.04 | 0.04 | 55 | 1011.7 |
| 20260509190033 | 78 | 263 | 1.7 | 5.2 | 0.00 | 0.04 | 0.04 | 54 | 1011.9 |
| 20260509185021 | 78 | 286 | 1.7 | 2.6 | 0.00 | 0.04 | 0.04 | 55 | 1012.0 |
| 20260509184047 | 77 | 272 | 2.6 | 5.2 | 0.00 | 0.04 | 0.04 | 58 | 1011.9 |
| 20260509183031 | 76 | 268 | 0.9 | 5.2 | 0.00 | 0.04 | 0.04 | 61 | 1011.8 |
| 20260509182019 | 76 | 269 | 1.7 | 6.1 | 0.00 | 0.04 | 0.04 | 60 | 1011.9 |
| 20260509181024 | 75 | 283 | 0.9 | 2.6 | 0.00 | 0.04 | 0.04 | 60 | 1011.9 |
| 20260509180028 | 75 | 259 | 2.6 | 7.0 | 0.00 | 0.04 | 0.04 | 61 | 1012.1 |
| 20260509175017 | 74 | 256 | 3.5 | 6.1 | 0.00 | 0.04 | 0.04 | 64 | 1012.2 |
| 20260509174021 | 75 | 255 | 1.7 | 5.2 | 0.00 | 0.04 | 0.04 | 67 | 1012.1 |
| 20260509173027 | 75 | 299 | 1.7 | 6.1 | 0.00 | 0.04 | 0.04 | 63 | 1012.1 |
| 20260509172031 | 74 | 64 | 0.9 | 3.5 | 0.00 | 0.04 | 0.04 | 64 | 1012.3 |
| 20260509171020 | 73 | 258 | 0.9 | 3.5 | 0.00 | 0.04 | 0.04 | 66 | 1012.2 |
| 20260509170025 | 72 | 133 | 1.7 | 6.1 | 0.00 | 0.04 | 0.04 | 70 | 1012.3 |
| 20260509165030 | 72 | 262 | 2.6 | 7.0 | 0.00 | 0.04 | 0.04 | 70 | 1012.3 |
| 20260509164018 | 72 | 257 | 1.7 | 6.1 | 0.00 | 0.04 | 0.04 | 71 | 1012.4 |
| 20260509163044 | 72 | 275 | 2.6 | 8.7 | 0.00 | 0.04 | 0.04 | 71 | 1012.3 |
| 20260509162031 | 71 | 244 | 1.7 | 5.2 | 0.00 | 0.04 | 0.04 | 71 | 1012.4 |
| 20260509161033 | 72 | 253 | 1.7 | 2.6 | 0.00 | 0.04 | 0.04 | 70 | 1012.6 |
| 20260509160020 | 72 | 320 | 0.9 | 1.7 | 0.00 | 0.04 | 0.04 | 71 | 1012.3 |
| 20260509155045 | 70 | 302 | 1.7 | 5.2 | 0.00 | 0.04 | 0.04 | 74 | 1012.2 |